[[{"header":{"parameterUnit":"m.s-1","parameterCategory":1,"la1":30.2991,"la2":30.254,"lo1":-89.0895,"lo2":-89.0444,"dy":0.0017,"dx":0.0017,"nx":28,"ny":28,"refTime":"2023-08-16T09:00:00:Z","depth":0,"parameterNumber":2,"parameterNumberName":"U-component_of_WINDS"},"data":[0,0,0,0,0,0,0,0,0,0,0,0,0,0,0,0,0,0,0,0,0,0,0,0,0,0,0,0,0,0,0,0,0,0,0,0,0,0,0,0,0,0,0,0,0,0,0,0,0,0,0,0,0,0,0,0,0,0,-0.1444,-0.1444,0,-0.1427,-0.1427,-0.1427,-0.1385,-0.1384,-0.1383,-0.1383,-0.1365,-0.1365,-0.1366,0,0,0,0,0,0,0,0,0,0,0,0,0,-0.1442,-0.1442,-0.1444,-0.1444,-0.1444,-0.1427,-0.1427,-0.1427,-0.1385,-0.1384,-0.1383,-0.1382,-0.1365,-0.1365,-0.1366,0,0,0,0,0,0,0,0,0,0,0,0,0,-0.1436,-0.1442,-0.1444,-0.1421,-0.1419,-0.1427,-0.1427,-0.1427,-0.1386,-0.1384,-0.1383,-0.1382,-0.1365,-0.1365,-0.1366,-0.1395,0,0,-0.1367,-0.1368,0,0,0,0,0,0,0,0,-0.1436,-0.1436,-0.1425,-0.1423,-0.142,-0.1407,-0.142,-0.1416,-0.1386,-0.1398,-0.1383,-0.1381,-0.138,-0.1379,-0.1379,-0.1394,-0.1394,-0.1367,-0.1368,-0.1368,-0.1368,0,0,0,0,0,0,0,-0.1436,-0.1436,-0.1438,-0.1425,-0.1422,-0.1412,-0.141,-0.1419,-0.1397,-0.1397,-0.1394,-0.1393,-0.1379,-0.1379,-0.1378,-0.1393,-0.1367,-0.1368,-0.1368,-0.1368,-0.1433,-0.1434,0,0,0,0,0,0,-0.144,-0.1437,-0.1438,-0.1437,-0.1425,-0.1413,-0.141,-0.1413,-0.1396,-0.1393,-0.1394,-0.1391,-0.1378,-0.1378,-0.1377,-0.1411,-0.1368,-0.1368,-0.1369,-0.1432,-0.1433,-0.1435,0,0,0,0,0,0,-0.144,-0.1441,-0.1439,-0.1436,-0.1435,-0.1414,-0.1417,-0.1413,-0.1413,-0.1394,-0.139,-0.1398,-0.1377,-0.1377,-0.1391,-0.141,-0.1369,-0.1369,-0.143,-0.1432,-0.1434,-0.1479,0,0,0,0,0,0,-0.144,-0.1441,-0.1452,-0.1437,-0.1435,-0.1453,-0.1418,-0.1414,-0.1414,-0.141,-0.1397,-0.1393,-0.1376,-0.1391,-0.1392,-0.141,-0.137,-0.1428,-0.1431,-0.1433,-0.1475,-0.1482,-0.1488,0,0,0,0,0,-0.144,-0.1465,-0.1452,-0.1453,-0.1448,-0.1454,-0.1453,-0.1433,-0.1416,-0.1426,-0.1414,-0.1394,-0.1408,-0.1393,-0.1393,-0.1412,-0.1427,-0.143,-0.1433,-0.1473,-0.1481,-0.1487,0,0,0,0,0,0,-0.1482,-0.1462,-0.1448,-0.1468,-0.1463,-0.1447,-0.146,-0.1442,-0.1442,-0.1438,-0.1413,-0.1411,-0.1429,-0.1422,-0.1405,-0.144,-0.1414,-0.1418,-0.1444,-0.1451,-0.1457,-0.1458,-0.137,0,0,0,0,0,-0.1493,-0.15,-0.1482,-0.1502,-0.15,-0.1481,-0.1482,-0.1467,-0.1461,-0.1458,-0.1447,-0.1442,-0.1445,-0.1448,-0.145,-0.1475,-0.1471,-0.1488,-0.1494,-0.1499,-0.1502,-0.1515,-0.1522,-0.1445,-0.1445,-0.1445,0,0,-0.1517,-0.1507,-0.1512,-0.151,-0.1504,-0.1511,-0.1479,-0.1487,-0.1493,-0.146,-0.1473,-0.1465,-0.1457,-0.1477,-0.1485,-0.1472,-0.1523,-0.1503,-0.1507,-0.1507,-0.1519,-0.1526,-0.1533,-0.1447,-0.1447,-0.1447,0,0,-0.1564,-0.1557,-0.1573,-0.1568,-0.156,-0.1547,-0.1551,-0.1538,-0.1531,-0.1544,-0.152,-0.1526,-0.1532,-0.1528,-0.1526,-0.1573,-0.1554,-0.1575,-0.1606,-0.1619,-0.1625,-0.1631,-0.1647,-0.1654,-0.1578,-0.1578,-0.1578,0,-0.1594,-0.1604,-0.1583,-0.1593,-0.1593,-0.1564,-0.158,-0.1577,-0.157,-0.157,-0.1556,-0.1563,-0.1556,-0.1575,-0.1586,-0.1586,-0.159,-0.1576,-0.1626,-0.1631,-0.1636,-0.1652,-0.1658,-0.1581,-0.158,-0.158,-0.158,0,-0.1642,-0.1649,-0.1663,-0.1657,-0.1659,-0.1672,-0.1653,-0.1657,-0.1643,-0.1632,-0.1646,-0.1637,-0.1636,-0.164,-0.1626,-0.1657,-0.1649,-0.1631,-0.1604,-0.1646,-0.166,-0.1666,-0.1584,-0.1583,-0.1583,-0.1582,0,0,-0.1713,-0.1696,-0.1702,-0.1699,-0.1689,-0.1694,-0.1707,-0.1707,-0.1711,-0.1708,-0.1717,-0.1724,-0.1707,-0.1706,-0.1691,-0.1703,-0.1741,-0.1683,-0.1682,-0.1694,-0.1775,-0.1788,-0.1795,-0.1729,-0.173,-0.1731,-0.1775,0,-0.1757,-0.1776,-0.1759,-0.1782,-0.1789,-0.1762,-0.1773,-0.1768,-0.1759,-0.1763,-0.1753,-0.1758,-0.1736,-0.1735,-0.1745,-0.1734,-0.1757,-0.1731,-0.1737,-0.1738,-0.1739,-0.1803,-0.1817,-0.1859,-0.1781,-0.1782,-0.1783,0,-0.181,-0.1809,-0.1834,-0.1823,-0.1825,-0.1835,-0.1834,-0.1839,-0.1833,-0.1825,-0.1825,-0.1807,-0.1819,-0.1794,-0.181,-0.1793,-0.1795,-0.179,-0.1791,-0.179,-0.1762,-0.1803,-0.1872,-0.1879,-0.1791,-0.179,-0.179,0,-0.1859,-0.1864,-0.188,-0.1878,-0.1866,-0.1874,-0.1869,-0.1862,-0.1864,-0.1863,-0.1864,-0.1865,-0.1866,-0.1867,-0.1851,-0.1834,-0.1869,-0.1842,-0.1863,-0.1863,-0.187,-0.187,-0.194,-0.1873,-0.1873,-0.1873,-0.1873,0,-0.1909,-0.1925,-0.1902,-0.1911,-0.1928,-0.1908,-0.1926,-0.1918,-0.1913,-0.192,-0.1898,-0.1906,-0.1884,-0.189,-0.1877,-0.1892,-0.1893,-0.1887,-0.1883,-0.1888,-0.1889,-0.1888,-0.1885,-0.1874,-0.1874,-0.1874,-0.1873,0,-0.1966,-0.1951,-0.1966,-0.1954,-0.1951,-0.1964,-0.1954,-0.1962,-0.1952,-0.1962,-0.1963,-0.1947,-0.1953,-0.1937,-0.194,-0.1931,-0.1953,-0.1945,-0.1955,-0.1952,-0.1974,-0.1972,-0.2045,-0.2054,-0.1982,-0.1983,-0.1983,0,-0.1998,-0.201,-0.1999,-0.2003,-0.2,-0.2006,-0.2008,-0.1989,-0.1992,-0.1987,-0.1996,-0.2,-0.2002,-0.2012,-0.2001,-0.2003,-0.1994,-0.202,-0.1994,-0.1999,-0.1994,-0.1993,-0.1994,-0.2025,-0.2026,-0.2027,-0.2027,0,-0.2057,-0.205,-0.2053,-0.2055,-0.2058,-0.2058,-0.2056,-0.2061,-0.2041,-0.2045,-0.2051,-0.2052,-0.2056,-0.206,-0.206,-0.2056,-0.2038,-0.2036,-0.204,-0.2045,-0.205,-0.2047,-0.1969,-0.2034,-0.2033,-0.2032,-0.2032,-0.2032,-0.2103,-0.2112,-0.2106,-0.2111,-0.2108,-0.2108,-0.2115,-0.2106,-0.2111,-0.2112,-0.2101,-0.2109,-0.2104,-0.2103,-0.21,-0.2106,-0.2095,-0.2102,-0.2103,-0.2105,-0.2108,-0.2051,-0.2107,-0.2106,-0.2106,-0.2106,-0.2106,0,-0.216,-0.2155,-0.216,-0.2159,-0.2163,-0.2148,-0.2146,-0.215,-0.2157,-0.2155,-0.2157,-0.2164,-0.2169,-0.2158,-0.2161,-0.2168,-0.216,-0.2169,-0.2168,-0.2167,-0.2119,-0.2114,-0.2176,-0.2176,-0.2176,-0.2176,-0.2176,-0.2176,-0.219,-0.2205,-0.2197,-0.2211,-0.2206,-0.2214,-0.2215,-0.2214,-0.2212,-0.2221,-0.2224,-0.2218,-0.2212,-0.2215,-0.2218,-0.2215,-0.2217,-0.2228,-0.2223,-0.2177,-0.2171,-0.2164,-0.2159,-0.2229,-0.2229,-0.227,-0.227,-0.2271]},{"header":{"parameterUnit":"m.s-1","parameterCategory":1,"la1":30.2991,"la2":30.254,"lo1":-89.0895,"lo2":-89.0444,"dy":0.0017,"dx":0.0017,"nx":28,"ny":28,"refTime":"2023-08-16T09:00:00:Z","depth":0,"parameterNumber":3,"parameterNumberName":"V-component_of_WINDS"},"data":[0,0,0,0,0,0,0,0,0,0,0,0,0,0,0,0,0,0,0,0,0,0,0,0,0,0,0,0,0,0,0,0,0,0,0,0,0,0,0,0,0,0,0,0,0,0,0,0,0,0,0,0,0,0,0,0,0,0,0.0342,0.0343,0,0.0421,0.0422,0.0423,0.0372,0.0369,0.0367,0.0365,0.0446,0.0451,0.0455,0,0,0,0,0,0,0,0,0,0,0,0,0,0.0147,0.015,0.0342,0.0343,0.0344,0.0421,0.0422,0.0423,0.0372,0.0369,0.0366,0.0364,0.0445,0.045,0.0455,0,0,0,0,0,0,0,0,0,0,0,0,0,0.0229,0.0152,0.0341,0.0327,0.0327,0.0421,0.0422,0.0424,0.0373,0.0369,0.0366,0.0362,0.0443,0.045,0.0456,0.0568,0,0,0.0476,0.0479,0,0,0,0,0,0,0,0,0.0225,0.0237,0.0329,0.0329,0.0328,0.0383,0.0383,0.0472,0.0374,0.0355,0.0365,0.0361,0.0428,0.0436,0.0459,0.0572,0.0576,0.0477,0.0481,0.0484,0.0485,0,0,0,0,0,0,0,0.0219,0.0233,0.0373,0.033,0.033,0.0318,0.0325,0.04,0.0411,0.0357,0.0353,0.0363,0.0427,0.0452,0.046,0.0577,0.0477,0.0482,0.0487,0.0489,0.079,0.0794,0,0,0,0,0,0,0.0214,0.0228,0.0371,0.0375,0.0267,0.0324,0.0333,0.0369,0.041,0.0413,0.0366,0.0361,0.0443,0.0452,0.0463,0.06,0.0484,0.049,0.0494,0.0786,0.0791,0.0795,0,0,0,0,0,0,0.021,0.0228,0.0367,0.0301,0.0318,0.0331,0.0372,0.0372,0.0397,0.0417,0.0419,0.039,0.044,0.0453,0.0543,0.0602,0.0493,0.0499,0.0781,0.0787,0.0793,0.0873,0,0,0,0,0,0,0.0205,0.0226,0.0269,0.0302,0.0322,0.0446,0.0376,0.0377,0.0409,0.0402,0.044,0.0442,0.0439,0.0534,0.055,0.0609,0.0504,0.0776,0.0784,0.0791,0.0865,0.0881,0.0894,0,0,0,0,0,0.0198,0.0287,0.0271,0.0289,0.0375,0.045,0.0461,0.0455,0.0414,0.0457,0.047,0.0441,0.0592,0.0543,0.0561,0.0623,0.0772,0.0782,0.0791,0.0858,0.0877,0.0894,0,0,0,0,0,0,0.0259,0.0291,0.0274,0.0376,0.0411,0.0441,0.0495,0.0475,0.0521,0.0513,0.0504,0.0513,0.0607,0.0623,0.0568,0.0735,0.0676,0.0689,0.0721,0.074,0.0754,0.0749,0.0509,0,0,0,0,0,0.0284,0.0342,0.0367,0.0455,0.0474,0.0482,0.0514,0.0506,0.0542,0.0556,0.0576,0.0611,0.0667,0.0704,0.0756,0.0866,0.0875,0.0918,0.0932,0.0944,0.0956,0.1019,0.1039,0.0825,0.0825,0.0825,0,0,0.0337,0.0362,0.0399,0.0468,0.0494,0.0556,0.0494,0.0561,0.0607,0.0566,0.0653,0.0669,0.0708,0.081,0.0855,0.0826,0.1017,0.0956,0.0965,0.0971,0.1031,0.1051,0.1069,0.0831,0.083,0.0829,0,0,0.0466,0.0489,0.0567,0.0594,0.0635,0.064,0.0659,0.0693,0.0702,0.0789,0.0761,0.0815,0.0911,0.0941,0.0969,0.1111,0.1088,0.1128,0.1206,0.1267,0.1284,0.1299,0.1353,0.1372,0.114,0.114,0.114,0,0.0526,0.0617,0.0609,0.0679,0.0711,0.0678,0.0758,0.0785,0.084,0.0864,0.083,0.0952,0.0975,0.1085,0.112,0.1143,0.1166,0.1125,0.1282,0.1297,0.1311,0.1362,0.1382,0.1145,0.1145,0.1144,0.1144,0,0.0692,0.0756,0.0813,0.0869,0.0908,0.0982,0.0986,0.1026,0.1015,0.1025,0.1115,0.1143,0.1202,0.1226,0.1216,0.1336,0.1317,0.1283,0.1224,0.1337,0.1385,0.1404,0.1152,0.115,0.1149,0.1148,0,0,0.086,0.0912,0.0934,0.096,0.1004,0.1053,0.1127,0.1185,0.1221,0.126,0.1323,0.1406,0.1376,0.1407,0.14,0.1454,0.1569,0.1414,0.1415,0.1444,0.1707,0.1734,0.1757,0.1553,0.1557,0.156,0.1704,0,0.0993,0.1122,0.1118,0.1239,0.1299,0.127,0.1334,0.1369,0.1379,0.1433,0.1444,0.1504,0.1458,0.1478,0.1529,0.1544,0.1622,0.1533,0.1614,0.1617,0.1607,0.1781,0.181,0.1945,0.1723,0.1726,0.1728,0,0.1166,0.1213,0.1341,0.1378,0.1403,0.1461,0.1516,0.1566,0.1605,0.161,0.1647,0.1632,0.1708,0.1645,0.1752,0.1691,0.1724,0.1736,0.1741,0.1751,0.1681,0.1798,0.1987,0.2009,0.1757,0.1755,0.1753,0,0.128,0.1375,0.1464,0.1487,0.1532,0.1575,0.1595,0.1631,0.1667,0.1714,0.1738,0.1794,0.1825,0.1868,0.187,0.1823,0.1978,0.1915,0.1986,0.1986,0.2021,0.202,0.2222,0.2038,0.2038,0.2037,0.2037,0,0.143,0.151,0.1517,0.1572,0.1661,0.1656,0.1744,0.1761,0.1793,0.1852,0.1829,0.1885,0.1882,0.1939,0.194,0.203,0.2043,0.205,0.205,0.2054,0.2053,0.2076,0.2068,0.2043,0.2041,0.204,0.2039,0,0.1573,0.158,0.1677,0.1712,0.1723,0.1788,0.1818,0.1872,0.1881,0.1956,0.1973,0.1988,0.2054,0.206,0.2135,0.2136,0.2246,0.2234,0.2234,0.2233,0.2304,0.2299,0.2531,0.2562,0.2355,0.2357,0.2359,0,0.167,0.1731,0.1774,0.1812,0.1836,0.1897,0.1935,0.1932,0.1972,0.2023,0.2071,0.2135,0.2186,0.2294,0.2312,0.2371,0.2362,0.2439,0.237,0.2374,0.2367,0.2364,0.2372,0.2453,0.2455,0.2457,0.2459,0,0.1842,0.1843,0.1898,0.1956,0.2002,0.2047,0.2089,0.2121,0.2124,0.2171,0.2239,0.2279,0.2358,0.2423,0.2481,0.2503,0.2483,0.248,0.25,0.2506,0.2504,0.251,0.2273,0.2475,0.2473,0.2472,0.2471,0.2471,0.1966,0.2021,0.2061,0.2124,0.2155,0.2196,0.2249,0.2266,0.2322,0.2387,0.2382,0.2458,0.2498,0.2575,0.2601,0.2661,0.2635,0.2664,0.2671,0.2679,0.2688,0.2493,0.2671,0.2671,0.2671,0.267,0.267,0,0.214,0.2164,0.2223,0.2283,0.2334,0.231,0.2356,0.24,0.2468,0.2507,0.2558,0.2638,0.2702,0.2726,0.2788,0.2832,0.2825,0.2849,0.2847,0.2853,0.2706,0.2684,0.2854,0.2854,0.2854,0.2854,0.2854,0.2854,0.2236,0.2328,0.2335,0.2443,0.2466,0.2542,0.2571,0.2609,0.264,0.2731,0.2784,0.2799,0.2833,0.2898,0.2956,0.2962,0.2987,0.3016,0.3018,0.2881,0.2863,0.2845,0.2824,0.3021,0.3021,0.316,0.3161,0.3162]}]]